Time,TemperatureF,DewpointF,PressureIn,WindDirection,WindDirectionDegrees,WindSpeedMPH,WindSpeedGustMPH,Humidity,HourlyPrecipIn,Conditions,Clouds,dailyrainin,SoftwareType,DateUTC
2013-06-17 00:34:00,64.0,-99.9,29.86,NW,313,-999.0,-999.0,-999,0.00,,,-99.99,,2013-06-17 04:34:00,
2013-06-17 00:43:00,64.0,-99.9,29.86,NW,313,-999.0,-999.0,-999,0.00,,,-99.99,,2013-06-17 04:43:00,
2013-06-17 00:52:00,62.0,-99.9,29.87,NW,313,-999.0,-999.0,-999,0.00,,,-99.99,,2013-06-17 04:52:00,
2013-06-17 01:33:00,62.0,-99.9,29.87,NW,313,-999.0,-999.0,-999,0.00,,,-99.99,,2013-06-17 05:33:00,
2013-06-17 01:44:00,62.0,-99.9,29.87,NW,313,-999.0,-999.0,-999,0.00,,,-99.99,,2013-06-17 05:44:00,
2013-06-17 01:52:00,61.0,-99.9,29.87,NW,313,-999.0,-999.0,-999,0.00,,,-99.99,,2013-06-17 05:52:00,
2013-06-17 02:33:00,61.0,-99.9,29.87,NW,313,-999.0,-999.0,-999,0.00,,,-99.99,,2013-06-17 06:33:00,
2013-06-17 02:44:00,61.0,-99.9,29.87,NW,313,-999.0,-999.0,-999,0.00,,,-99.99,,2013-06-17 06:44:00,
2013-06-17 02:52:00,60.0,-99.9,29.87,NW,313,-999.0,-999.0,-999,0.00,,,-99.99,,2013-06-17 06:52:00,
2013-06-17 03:33:00,60.0,-99.9,29.87,NW,313,-999.0,-999.0,-999,0.00,,,-99.99,,2013-06-17 07:33:00,
2013-06-17 03:43:00,60.0,-99.9,29.87,NW,313,-999.0,-999.0,-999,0.00,,,-99.99,,2013-06-17 07:43:00,
2013-06-17 03:52:00,60.0,-99.9,29.88,NW,313,-999.0,-999.0,-999,0.00,,,-99.99,,2013-06-17 07:52:00,
2013-06-17 04:34:00,60.0,-99.9,29.88,NW,313,-999.0,-999.0,-999,0.00,,,-99.99,,2013-06-17 08:34:00,
2013-06-17 04:43:00,60.0,-99.9,29.88,NW,313,-999.0,-999.0,-999,0.00,,,-99.99,,2013-06-17 08:43:00,
2013-06-17 04:52:00,60.0,-99.9,29.88,NW,313,-999.0,-999.0,-999,0.00,,,-99.99,,2013-06-17 08:52:00,
2013-06-17 05:34:00,60.0,-99.9,29.88,NW,313,-999.0,-999.0,-999,0.00,,,-99.99,,2013-06-17 09:34:00,
2013-06-17 05:44:00,60.0,-99.9,29.88,NW,313,-999.0,-999.0,-999,0.00,,,-99.99,,2013-06-17 09:44:00,
2013-06-17 05:52:00,60.0,-99.9,29.90,NW,313,-999.0,-999.0,-999,0.00,,,-99.99,,2013-06-17 09:52:00,
2013-06-17 06:33:00,60.0,-99.9,29.90,NW,313,-999.0,-999.0,-999,0.00,,,-99.99,,2013-06-17 10:33:00,
2013-06-17 06:43:00,60.0,-99.9,29.90,NW,313,-999.0,-999.0,-999,0.00,,,-99.99,,2013-06-17 10:43:00,
2013-06-17 06:52:00,64.0,-99.9,29.91,NW,313,-999.0,-999.0,-999,0.00,,,-99.99,,2013-06-17 10:52:00,
2013-06-17 07:33:00,64.0,-99.9,29.91,NW,313,-999.0,-999.0,-999,0.00,,,-99.99,,2013-06-17 11:33:00,
2013-06-17 07:43:00,64.0,-99.9,29.91,NW,313,-999.0,-999.0,-999,0.00,,,-99.99,,2013-06-17 11:43:00,
2013-06-17 07:52:00,69.0,-99.9,29.92,WNW,291,4.0,7.0,-999,0.00,,,-99.99,,2013-06-17 11:52:00,
2013-06-17 08:33:00,69.0,-99.9,29.92,WNW,291,4.0,7.0,-999,0.00,,,-99.99,,2013-06-17 12:33:00,
2013-06-17 08:43:00,69.0,-99.9,29.92,WNW,291,4.0,7.0,-999,0.00,,,-99.99,,2013-06-17 12:43:00,
2013-06-17 08:52:00,71.0,-99.9,29.92,WNW,289,5.0,8.0,-999,0.00,,,-99.99,,2013-06-17 12:52:00,
2013-06-17 09:33:00,71.0,-99.9,29.92,WNW,289,5.0,8.0,-999,0.00,,,-99.99,,2013-06-17 13:33:00,
2013-06-17 09:43:00,71.0,-99.9,29.92,WNW,289,5.0,8.0,-999,0.00,,,-99.99,,2013-06-17 13:43:00,
2013-06-17 09:52:00,75.0,-99.9,29.91,WSW,250,-999.0,7.0,-999,0.00,,,-99.99,,2013-06-17 13:52:00,
2013-06-17 10:44:00,75.0,-99.9,29.91,WSW,250,-999.0,7.0,-999,0.00,,,-99.99,,2013-06-17 14:44:00,
2013-06-17 10:52:00,77.0,-99.9,29.89,WNW,288,-999.0,9.0,-999,0.00,,,-99.99,,2013-06-17 14:52:00,
2013-06-17 11:33:00,77.0,-99.9,29.89,WNW,288,-999.0,9.0,-999,0.00,,,-99.99,,2013-06-17 15:33:00,
2013-06-17 11:43:00,77.0,-99.9,29.89,WNW,288,-999.0,9.0,-999,0.00,,,-99.99,,2013-06-17 15:43:00,
2013-06-17 12:52:00,77.0,-99.9,29.88,West,279,-999.0,7.0,-999,0.00,,,-99.99,,2013-06-17 16:52:00,
2013-06-17 13:33:00,77.0,-99.9,29.88,West,279,-999.0,7.0,-999,0.00,,,-99.99,,2013-06-17 17:33:00,
2013-06-17 13:43:00,77.0,-99.9,29.88,West,279,-999.0,7.0,-999,0.00,,,-99.99,,2013-06-17 17:43:00,
2013-06-17 13:52:00,80.0,-99.9,29.87,WNW,286,7.0,11.0,-999,0.00,,,-99.99,,2013-06-17 17:52:00,
2013-06-17 14:33:00,80.0,-99.9,29.87,WNW,286,7.0,11.0,-999,0.00,,,-99.99,,2013-06-17 18:33:00,
2013-06-17 14:43:00,80.0,-99.9,29.87,WNW,286,7.0,11.0,-999,0.00,,,-99.99,,2013-06-17 18:43:00,
2013-06-17 14:52:00,78.0,-99.9,29.87,East,82,11.0,15.0,-999,0.00,,,-99.99,,2013-06-17 18:52:00,
2013-06-17 15:33:00,78.0,-99.9,29.87,East,82,11.0,15.0,-999,0.00,,,-99.99,,2013-06-17 19:33:00,
2013-06-17 15:44:00,78.0,-99.9,29.87,East,82,11.0,15.0,-999,0.00,,,-99.99,,2013-06-17 19:44:00,
2013-06-17 15:52:00,75.0,-99.9,29.86,NNE,19,-999.0,11.0,-999,0.00,,,-99.99,,2013-06-17 19:52:00,
2013-06-17 16:34:00,75.0,-99.9,29.86,NNE,19,-999.0,11.0,-999,0.00,,,-99.99,,2013-06-17 20:34:00,
2013-06-17 16:43:00,75.0,-99.9,29.86,NNE,19,-999.0,11.0,-999,0.00,,,-99.99,,2013-06-17 20:43:00,
2013-06-17 16:52:00,81.0,-99.9,29.83,West,279,-999.0,12.0,-999,0.00,,,-99.99,,2013-06-17 20:52:00,
2013-06-17 17:33:00,81.0,-99.9,29.83,West,279,-999.0,12.0,-999,0.00,,,-99.99,,2013-06-17 21:33:00,
2013-06-17 17:43:00,81.0,-99.9,29.83,West,279,-999.0,12.0,-999,0.00,,,-99.99,,2013-06-17 21:43:00,
2013-06-17 17:52:00,79.0,-99.9,29.85,SSE,152,5.0,6.0,-999,0.00,,,-99.99,,2013-06-17 21:52:00,
2013-06-17 18:34:00,79.0,-99.9,29.85,SSE,152,5.0,6.0,-999,0.00,,,-99.99,,2013-06-17 22:34:00,
2013-06-17 18:43:00,79.0,-99.9,29.85,SSE,152,5.0,6.0,-999,0.00,,,-99.99,,2013-06-17 22:43:00,
2013-06-17 18:52:00,80.0,-99.9,29.85,South,183,-999.0,-999.0,-999,0.00,,,-99.99,,2013-06-17 22:52:00,
2013-06-17 19:33:00,80.0,-99.9,29.85,South,183,-999.0,-999.0,-999,0.00,,,-99.99,,2013-06-17 23:33:00,
2013-06-17 19:43:00,80.0,-99.9,29.85,South,183,-999.0,-999.0,-999,0.00,,,-99.99,,2013-06-17 23:43:00,
2013-06-17 19:52:00,76.0,-99.9,29.85,SW,225,-999.0,-999.0,-999,0.00,,,-99.99,,2013-06-17 23:52:00,
2013-06-17 20:33:00,76.0,-99.9,29.85,SW,225,-999.0,-999.0,-999,0.00,,,-99.99,,2013-06-18 00:33:00,
2013-06-17 20:43:00,76.0,-99.9,29.85,SW,225,-999.0,-999.0,-999,0.00,,,-99.99,,2013-06-18 00:43:00,
2013-06-17 20:52:00,73.0,-99.9,29.86,SW,225,-999.0,-999.0,-999,0.00,,,-99.99,,2013-06-18 00:52:00,
2013-06-17 21:44:00,73.0,-99.9,29.86,SW,225,-999.0,-999.0,-999,0.00,,,-99.99,,2013-06-18 01:44:00,
2013-06-17 21:52:00,67.0,-99.9,29.88,SW,225,-999.0,-999.0,-999,0.00,,,-99.99,,2013-06-18 01:52:00,
2013-06-17 22:43:00,67.0,-99.9,29.88,SW,225,-999.0,-999.0,-999,0.00,,,-99.99,,2013-06-18 02:43:00,
2013-06-17 22:52:00,64.0,-99.9,29.90,SW,225,-999.0,-999.0,-999,0.00,,,-99.99,,2013-06-18 02:52:00,
2013-06-17 23:34:00,64.0,-99.9,29.90,SW,225,-999.0,-999.0,-999,0.00,,,-99.99,,2013-06-18 03:34:00,
2013-06-17 23:43:00,64.0,-99.9,29.90,SW,225,-999.0,-999.0,-999,0.00,,,-99.99,,2013-06-18 03:43:00,
2013-06-17 23:52:00,65.0,-99.9,29.90,SW,225,-999.0,-999.0,-999,0.00,,,-99.99,,2013-06-18 03:52:00,